| time (UTC) | temp C | wind direction | speed KPH | gust KPH | rain 1hr cm | rain 24hr cm | rain mn cm | humidity % | barometer mb |
| 20260507153809 | 12 | 180 | 0.0 | 6.4 | 0.23 | 0.43 | 0.43 | 95 | 1015.5 |
| 20260507153259 | 12 | 203 | 3.2 | 6.4 | 0.28 | 0.43 | 0.43 | 95 | 1015.7 |
| 20260507152749 | 12 | 203 | 1.6 | 6.4 | 0.28 | 0.43 | 0.43 | 95 | 1015.3 |
| 20260507152242 | 12 | 180 | 3.2 | 6.4 | 0.33 | 0.43 | 0.43 | 96 | 1015.3 |
| 20260507151729 | 12 | 158 | 1.6 | 6.4 | 0.33 | 0.43 | 0.43 | 95 | 1015.4 |
| 20260507151219 | 12 | 113 | 1.6 | 6.4 | 0.30 | 0.38 | 0.38 | 96 | 1015.3 |
| 20260507150709 | 12 | 135 | 3.2 | 6.4 | 0.30 | 0.38 | 0.38 | 95 | 1015.3 |
| 20260507150157 | 12 | 135 | 3.2 | 9.7 | 0.30 | 0.38 | 0.38 | 95 | 1015.5 |
| 20260507145651 | 12 | 135 | 3.2 | 9.7 | 0.28 | 0.36 | 0.36 | 95 | 1015.0 |
| 20260507145138 | 12 | 135 | 4.8 | 9.7 | 0.23 | 0.28 | 0.28 | 95 | 1015.0 |
| 20260507144629 | 12 | 180 | 3.2 | 9.7 | 0.20 | 0.20 | 0.23 | 95 | 1015.9 |
| 20260507144117 | 12 | 225 | 3.2 | 11.3 | 0.18 | 0.18 | 0.18 | 94 | 1015.5 |
| 20260507143607 | 12 | 158 | 3.2 | 14.5 | 0.18 | 0.18 | 0.18 | 94 | 1015.4 |
| 20260507143100 | 12 | 203 | 6.4 | 14.5 | 0.15 | 0.15 | 0.15 | 94 | 1015.6 |
| 20260507142547 | 12 | 203 | 6.4 | 11.3 | 0.13 | 0.13 | 0.13 | 94 | 1015.5 |
| 20260507142037 | 12 | 225 | 4.8 | 12.9 | 0.10 | 0.10 | 0.10 | 93 | 1015.6 |
| 20260507141527 | 12 | 135 | 3.2 | 12.9 | 0.10 | 0.10 | 0.10 | 92 | 1015.5 |
| 20260507141016 | 12 | 203 | 6.4 | 17.7 | 0.10 | 0.10 | 0.10 | 91 | 1015.8 |
| 20260507140510 | 13 | 135 | 6.4 | 17.7 | 0.10 | 0.10 | 0.10 | 90 | 1015.2 |
| 20260507140001 | 13 | 180 | 3.2 | 11.3 | 0.10 | 0.10 | 0.10 | 86 | 1015.0 |
| 20260507135511 | 14 | 180 | 6.4 | 14.5 | 0.05 | 0.05 | 0.05 | 81 | 1015.4 |
| 20260507134936 | 14 | 248 | 3.2 | 14.5 | 0.00 | 0.00 | 0.03 | 82 | 1014.8 |
| 20260507134430 | 14 | 293 | 3.2 | 24.1 | 0.00 | 0.00 | 0.00 | 82 | 1014.9 |
| 20260507133919 | 14 | 203 | 6.4 | 24.1 | 0.00 | 0.00 | 0.00 | 80 | 1015.2 |
| 20260507133405 | 15 | 225 | 6.4 | 27.4 | 0.00 | 0.00 | 0.00 | 73 | 1015.6 |
| 20260507132346 | 15 | 225 | 12.9 | 25.7 | 0.00 | 0.00 | 0.00 | 68 | 1015.5 |
| 20260507131835 | 15 | 180 | 12.9 | 25.7 | 0.00 | 0.00 | 0.00 | 68 | 1015.4 |
| 20260507131328 | 15 | 203 | 6.4 | 24.1 | 0.00 | 0.00 | 0.00 | 70 | 1015.2 |
| 20260507130815 | 15 | 248 | 4.8 | 27.4 | 0.00 | 0.00 | 0.00 | 71 | 1015.3 |
| 20260507130306 | 14 | 270 | 8.0 | 29.0 | 0.00 | 0.00 | 0.00 | 71 | 1014.9 |
| 20260507125754 | 14 | 225 | 11.3 | 29.0 | 0.00 | 0.00 | 0.00 | 72 | 1014.8 |
| 20260507125244 | 14 | 203 | 17.7 | 33.8 | 0.00 | 0.00 | 0.00 | 74 | 1014.8 |
| 20260507124736 | 14 | 225 | 17.7 | 33.8 | 0.00 | 0.00 | 0.00 | 74 | 1014.4 |
| 20260507124224 | 14 | 203 | 14.5 | 35.4 | 0.00 | 0.00 | 0.00 | 75 | 1014.3 |
| 20260507123204 | 14 | 248 | 17.7 | 38.6 | 0.00 | 0.00 | 0.00 | 74 | 1014.4 |
| 20260507122654 | 14 | 225 | 14.5 | 35.4 | 0.00 | 0.00 | 0.00 | 75 | 1014.2 |
| 20260507121633 | 14 | 225 | 19.3 | 38.6 | 0.00 | 0.00 | 0.00 | 79 | 1014.0 |
| 20260507121124 | 14 | 180 | 17.7 | 38.6 | 0.00 | 0.00 | 0.00 | 80 | 1013.8 |
| 20260507120613 | 14 | 180 | 16.1 | 37.0 | 0.00 | 0.00 | 0.00 | 80 | 1013.1 |
| 20260507120116 | 14 | 225 | 17.7 | 37.0 | 0.00 | 0.00 | 0.00 | 79 | 1013.0 |
| 20260507115556 | 14 | 203 | 14.5 | 37.0 | 0.00 | 0.00 | 0.00 | 78 | 1012.8 |
| 20260507115043 | 14 | 203 | 17.7 | 43.5 | 0.00 | 0.00 | 0.00 | 78 | 1012.5 |
| 20260507113513 | 15 | 203 | 20.9 | 57.9 | 0.00 | 0.00 | 0.00 | 78 | 1011.5 |
| 20260507113005 | 17 | 225 | 25.7 | 57.9 | 0.00 | 0.00 | 0.00 | 65 | 1011.0 |
| 20260507112451 | 18 | 180 | 33.8 | 51.5 | 0.00 | 0.00 | 0.00 | 58 | 1010.6 |
| 20260507111942 | 18 | 248 | 24.1 | 46.7 | 0.00 | 0.00 | 0.00 | 58 | 1010.8 |
| 20260507111444 | 18 | 203 | 25.7 | 49.9 | 0.00 | 0.00 | 0.00 | 58 | 1010.5 |
| 20260507110921 | 18 | 225 | 24.1 | 51.5 | 0.00 | 0.00 | 0.00 | 58 | 1010.1 |
| 20260507110413 | 18 | 180 | 17.7 | 51.5 | 0.00 | 0.00 | 0.00 | 58 | 1009.7 |
| 20260507105351 | 18 | 248 | 24.1 | 51.5 | 0.00 | 0.00 | 0.00 | 64 | 1009.2 |
| 20260507104841 | 18 | 225 | 24.1 | 51.5 | 0.00 | 0.00 | 0.00 | 66 | 1009.0 |
| 20260507104330 | 18 | 248 | 25.7 | 43.5 | 0.00 | 0.00 | 0.00 | 67 | 1008.8 |
| 20260507103823 | 18 | 180 | 25.7 | 43.5 | 0.00 | 0.00 | 0.00 | 68 | 1008.5 |
| 20260507103310 | 18 | 203 | 17.7 | 29.0 | 0.00 | 0.00 | 0.00 | 71 | 1008.5 |
| 20260507102800 | 18 | 225 | 12.9 | 24.1 | 0.00 | 0.00 | 0.00 | 71 | 1008.3 |
| 20260507102250 | 18 | 203 | 12.9 | 25.7 | 0.00 | 0.00 | 0.00 | 72 | 1008.3 |
| 20260507101739 | 18 | 225 | 12.9 | 25.7 | 0.00 | 0.00 | 0.00 | 74 | 1007.8 |
| 20260507100719 | 18 | 225 | 9.7 | 17.7 | 0.00 | 0.00 | 0.00 | 85 | 1007.5 |
| 20260507100228 | 18 | 135 | 6.4 | 12.9 | 0.00 | 0.00 | 0.00 | 86 | 1007.4 |
| 20260507095659 | 18 | 158 | 8.0 | 12.9 | 0.00 | 0.00 | 0.00 | 85 | 1007.1 |
| 20260507095149 | 18 | 180 | 3.2 | 11.3 | 0.00 | 0.00 | 0.00 | 84 | 1007.2 |
| 20260507094641 | 19 | 203 | 1.6 | 6.4 | 0.00 | 0.00 | 0.00 | 84 | 1006.9 |
| 20260507094129 | 19 | 248 | 1.6 | 6.4 | 0.00 | 0.00 | 0.00 | 84 | 1007.0 |
| 20260507093618 | 19 | 225 | 3.2 | 6.4 | 0.00 | 0.00 | 0.00 | 84 | 1006.5 |
| 20260507093108 | 19 | 248 | 3.2 | 3.2 | 0.00 | 0.00 | 0.00 | 84 | 1006.8 |
| 20260507092558 | 19 | 270 | 1.6 | 3.2 | 0.00 | 0.00 | 0.00 | 84 | 1006.5 |
| 20260507092051 | 19 | 315 | 0.0 | 3.2 | 0.00 | 0.00 | 0.00 | 84 | 1006.7 |
| 20260507091537 | 19 | 270 | 0.0 | 3.2 | 0.00 | 0.00 | 0.00 | 84 | 1006.1 |
| 20260507091027 | 19 | 270 | 1.6 | 3.2 | 0.00 | 0.00 | 0.00 | 84 | 1006.3 |
| 20260507090531 | 19 | 293 | 0.0 | 3.2 | 0.00 | 0.00 | 0.00 | 84 | 1006.4 |
| 20260507090008 | 19 | 270 | 1.6 | 3.2 | 0.00 | 0.00 | 0.00 | 84 | 1006.3 |
| 20260507084947 | 19 | 203 | 3.2 | 6.4 | 0.00 | 0.00 | 0.00 | 84 | 1023.7 |
| 20260507084437 | 19 | 248 | 1.6 | 3.2 | 0.00 | 0.00 | 0.00 | 84 | 1006.4 |
| 20260507083927 | 19 | 248 | 0.0 | 6.4 | 0.00 | 0.00 | 0.00 | 84 | 1006.3 |
| 20260507082909 | 19 | 248 | 3.2 | 6.4 | 0.00 | 0.00 | 0.00 | 84 | 1005.8 |
| 20260507082356 | 19 | 293 | 3.2 | 6.4 | 0.00 | 0.00 | 0.00 | 83 | 1006.3 |
| 20260507081846 | 18 | 293 | 3.2 | 6.4 | 0.00 | 0.00 | 0.00 | 84 | 1006.2 |
| 20260507081336 | 18 | 270 | 1.6 | 6.4 | 0.00 | 0.00 | 0.00 | 84 | 1005.7 |
| 20260507080826 | 18 | 315 | 6.4 | 6.4 | 0.00 | 0.00 | 0.00 | 84 | 1006.5 |
| 20260507080319 | 18 | 270 | 1.6 | 6.4 | 0.00 | 0.00 | 0.00 | 84 | 1005.5 |
| 20260507075255 | 18 | 293 | 0.0 | 3.2 | 0.00 | 0.00 | 0.00 | 84 | 1005.6 |
| 20260507074235 | 18 | 293 | 1.6 | 6.4 | 0.00 | 0.00 | 0.00 | 83 | 1005.6 |
| 20260507073728 | 18 | 270 | 1.6 | 6.4 | 0.00 | 0.00 | 0.00 | 83 | 1005.3 |
| 20260507073215 | 18 | 293 | 3.2 | 6.4 | 0.00 | 0.00 | 0.00 | 82 | 1005.4 |
| 20260507072154 | 18 | 248 | 3.2 | 6.4 | 0.00 | 0.00 | 0.00 | 81 | 1005.2 |
| 20260507071645 | 18 | 293 | 1.6 | 6.4 | 0.00 | 0.00 | 0.00 | 81 | 1005.4 |
| 20260507071137 | 18 | 315 | 3.2 | 6.4 | 0.00 | 0.00 | 0.00 | 82 | 1005.3 |
| 20260507070114 | 18 | 293 | 1.6 | 6.4 | 0.00 | 0.00 | 0.00 | 81 | 1005.4 |
| 20260507065604 | 18 | 293 | 1.6 | 6.4 | 0.00 | 0.00 | 0.00 | 80 | 1005.2 |
| 20260507065054 | 18 | 293 | 3.2 | 6.4 | 0.00 | 0.00 | 0.00 | 81 | 1005.3 |
| 20260507064546 | 18 | 293 | 0.0 | 6.4 | 0.00 | 0.00 | 0.00 | 79 | 1005.4 |
| 20260507064033 | 18 | 293 | 3.2 | 6.4 | 0.00 | 0.00 | 0.00 | 80 | 1005.3 |
| 20260507063020 | 18 | 338 | 1.6 | 3.2 | 0.00 | 0.00 | 0.00 | 80 | 1005.3 |
| 20260507062504 | 19 | 338 | 3.2 | 3.2 | 0.00 | 0.00 | 0.00 | 80 | 1005.4 |
| 20260507061956 | 18 | 338 | 0.0 | 0.0 | 0.00 | 0.00 | 0.00 | 80 | 1005.5 |
| 20260507061719 | 18 | 338 | 1.6 | 0.0 | 0.00 | 0.00 | 0.00 | 80 | 1005.7 |
| 20260507060546 | 19 | 338 | 1.6 | 3.2 | 0.00 | 0.00 | 0.00 | 79 | 1005.8 |
| 20260507060038 | 19 | 338 | 3.2 | 3.2 | 0.00 | 0.00 | 0.00 | 79 | 1006.2 |
| 20260507055525 | 19 | 0 | 1.6 | 3.2 | 0.00 | 0.00 | 0.00 | 78 | 1005.8 |
| 20260507054505 | 20 | 0 | 0.0 | 6.4 | 0.00 | 0.00 | 0.00 | 76 | 1006.1 |
| 20260507053956 | 20 | 315 | 3.2 | 6.4 | 0.00 | 0.00 | 0.00 | 76 | 1006.2 |
| 20260507053447 | 20 | 338 | 3.2 | 6.4 | 0.00 | 0.00 | 0.00 | 76 | 1006.0 |
| 20260507052935 | 20 | 338 | 1.6 | 6.4 | 0.00 | 0.00 | 0.00 | 76 | 1006.0 |
| 20260507051914 | 19 | 315 | 3.2 | 6.4 | 0.00 | 0.00 | 0.00 | 77 | 1006.1 |
| 20260507051404 | 19 | 315 | 3.2 | 6.4 | 0.00 | 0.00 | 0.00 | 77 | 1006.2 |
| 20260507050857 | 19 | 338 | 3.2 | 6.4 | 0.00 | 0.00 | 0.00 | 77 | 1005.8 |
| 20260507050344 | 19 | 315 | 3.2 | 6.4 | 0.00 | 0.00 | 0.00 | 78 | 1006.0 |
| 20260507045835 | 19 | 0 | 3.2 | 6.4 | 0.00 | 0.00 | 0.00 | 78 | 1006.2 |
| 20260507045324 | 18 | 338 | 3.2 | 3.2 | 0.00 | 0.00 | 0.00 | 79 | 1006.3 |
| 20260507044814 | 18 | 338 | 0.0 | 3.2 | 0.00 | 0.00 | 0.00 | 79 | 1006.1 |
| 20260507044306 | 18 | 315 | 0.0 | 6.4 | 0.00 | 0.00 | 0.00 | 79 | 1006.3 |
| 20260507043244 | 18 | 338 | 3.2 | 6.4 | 0.00 | 0.00 | 0.00 | 80 | 1006.4 |
| 20260507042733 | 18 | 338 | 1.6 | 6.4 | 0.00 | 0.00 | 0.00 | 80 | 1006.4 |
| 20260507042223 | 18 | 0 | 3.2 | 6.4 | 0.00 | 0.00 | 0.00 | 80 | 1006.5 |
| 20260507041715 | 18 | 338 | 3.2 | 6.4 | 0.00 | 0.00 | 0.00 | 80 | 1006.7 |
| 20260507041203 | 18 | 0 | 3.2 | 6.4 | 0.00 | 0.00 | 0.00 | 81 | 1006.8 |
| 20260507040652 | 18 | 0 | 3.2 | 6.4 | 0.00 | 0.00 | 0.00 | 81 | 1006.6 |
| 20260507040148 | 18 | 338 | 3.2 | 6.4 | 0.00 | 0.00 | 0.00 | 80 | 1006.7 |
| 20260507035632 | 18 | 0 | 3.2 | 6.4 | 0.00 | 0.00 | 0.00 | 80 | 1006.7 |
| 20260507035133 | 19 | 45 | 3.2 | 6.4 | 0.00 | 0.00 | 0.00 | 80 | 1007.0 |
| 20260507034611 | 19 | 90 | 3.2 | 6.4 | 0.00 | 0.00 | 0.00 | 79 | 1007.0 |
| 20260507034102 | 19 | 45 | 3.2 | 6.4 | 0.00 | 0.00 | 0.00 | 78 | 1006.9 |
| 20260507033551 | 19 | 45 | 3.2 | 6.4 | 0.00 | 0.00 | 0.00 | 78 | 1006.8 |
| 20260507033041 | 19 | 158 | 0.0 | 6.4 | 0.00 | 0.00 | 0.00 | 78 | 1007.0 |
| 20260507032535 | 19 | 113 | 3.2 | 6.4 | 0.00 | 0.00 | 0.00 | 78 | 1006.9 |
| 20260507032020 | 19 | 90 | 3.2 | 12.9 | 0.00 | 0.00 | 0.00 | 78 | 1006.9 |
| 20260507031513 | 20 | 68 | 4.8 | 12.9 | 0.00 | 0.00 | 0.00 | 76 | 1006.5 |
| 20260507031001 | 20 | 113 | 1.6 | 9.7 | 0.00 | 0.00 | 0.00 | 74 | 1006.6 |
| 20260507030451 | 21 | 158 | 1.6 | 11.3 | 0.00 | 0.00 | 0.00 | 71 | 1006.4 |
| 20260507025943 | 21 | 225 | 3.2 | 14.5 | 0.00 | 0.00 | 0.00 | 71 | 1006.0 |
| 20260507025433 | 21 | 225 | 8.0 | 14.5 | 0.00 | 0.00 | 0.00 | 71 | 1005.8 |
| 20260507024410 | 21 | 203 | 9.7 | 12.9 | 0.00 | 0.00 | 0.00 | 72 | 1005.7 |
| 20260507023901 | 21 | 203 | 4.8 | 14.5 | 0.00 | 0.00 | 0.00 | 72 | 1005.7 |
| 20260507023353 | 21 | 203 | 6.4 | 17.7 | 0.00 | 0.00 | 0.00 | 71 | 1005.4 |
| 20260507022839 | 21 | 270 | 6.4 | 20.9 | 0.00 | 0.00 | 0.00 | 69 | 1005.3 |
| 20260507022342 | 21 | 203 | 11.3 | 20.9 | 0.00 | 0.00 | 0.00 | 68 | 1004.9 |
| 20260507021819 | 22 | 203 | 9.7 | 17.7 | 0.00 | 0.00 | 0.00 | 68 | 1004.7 |
| 20260507020802 | 22 | 225 | 6.4 | 17.7 | 0.00 | 0.00 | 0.00 | 68 | 1004.2 |
| 20260507020248 | 21 | 315 | 3.2 | 12.9 | 0.00 | 0.00 | 0.00 | 69 | 1004.6 |
| 20260507015738 | 21 | 180 | 6.4 | 22.5 | 0.00 | 0.00 | 0.00 | 70 | 1004.3 |
| 20260507014718 | 22 | 248 | 12.9 | 22.5 | 0.00 | 0.00 | 0.00 | 69 | 1003.7 |
| 20260507014211 | 21 | 248 | 1.6 | 6.4 | 0.00 | 0.00 | 0.00 | 73 | 1003.6 |
| 20260507013658 | 22 | 248 | 1.6 | 17.7 | 0.00 | 0.00 | 0.00 | 74 | 1003.2 |
| 20260507013148 | 22 | 225 | 1.6 | 17.7 | 0.00 | 0.00 | 0.00 | 74 | 1003.5 |
| 20260507012641 | 21 | 248 | 0.0 | 6.4 | 0.00 | 0.00 | 0.00 | 75 | 1003.3 |
| 20260507012127 | 22 | 315 | 3.2 | 6.4 | 0.00 | 0.00 | 0.00 | 75 | 1003.4 |
| 20260507011618 | 22 | 225 | 0.0 | 11.3 | 0.00 | 0.00 | 0.00 | 75 | 1003.1 |
| 20260507010558 | 21 | 113 | 4.8 | 9.7 | 0.00 | 0.00 | 0.00 | 77 | 1002.9 |
| 20260507005536 | 21 | 180 | 0.0 | 3.2 | 0.00 | 0.00 | 0.00 | 78 | 1003.1 |
| 20260507005026 | 21 | 248 | 0.0 | 3.2 | 0.00 | 0.00 | 0.00 | 78 | 1003.6 |
| 20260507004517 | 21 | 135 | 1.6 | 6.4 | 0.00 | 0.00 | 0.00 | 76 | 1003.6 |
| 20260507004006 | 21 | 135 | 3.2 | 6.4 | 0.00 | 0.00 | 0.00 | 76 | 1003.7 |
| 20260507003459 | 21 | 248 | 3.2 | 6.4 | 0.00 | 0.00 | 0.00 | 75 | 1003.6 |
| 20260507002951 | 21 | 248 | 3.2 | 6.4 | 0.00 | 0.00 | 0.00 | 75 | 1003.9 |
| 20260507002436 | 22 | 225 | 3.2 | 6.4 | 0.00 | 0.00 | 0.00 | 73 | 1003.6 |
| 20260507001934 | 21 | 248 | 0.0 | 3.2 | 0.00 | 0.00 | 0.00 | 74 | 1004.1 |
| 20260507000915 | 22 | 248 | 0.0 | 3.2 | 0.00 | 0.00 | 0.00 | 72 | 1003.9 |
| 20260507000401 | 22 | 248 | 0.0 | 6.4 | 0.00 | 0.00 | 0.00 | 72 | 1003.8 |
| 20260506235846 | 22 | 270 | 3.2 | 6.4 | 0.00 | 0.00 | 0.00 | 71 | 1004.3 |
| 20260506235336 | 22 | 248 | 3.2 | 6.4 | 0.00 | 0.00 | 0.00 | 70 | 1003.8 |
| 20260506234824 | 22 | 293 | 3.2 | 3.2 | 0.00 | 0.00 | 0.00 | 70 | 1004.1 |
| 20260506234318 | 22 | 225 | 1.6 | 11.3 | 0.00 | 0.00 | 0.00 | 70 | 1003.8 |
| 20260506233805 | 23 | 270 | 0.0 | 11.3 | 0.00 | 0.00 | 0.00 | 68 | 1004.2 |
| 20260506233255 | 23 | 270 | 0.0 | 6.4 | 0.00 | 0.00 | 0.00 | 68 | 1003.8 |
| 20260506232744 | 23 | 270 | 0.0 | 6.4 | 0.00 | 0.00 | 0.00 | 67 | 1003.7 |
| 20260506231727 | 23 | 338 | 0.0 | 6.4 | 0.00 | 0.00 | 0.00 | 66 | 1003.6 |
| 20260506231226 | 23 | 338 | 0.0 | 9.7 | 0.00 | 0.00 | 0.00 | 65 | 1003.9 |
| 20260506230717 | 23 | 315 | 1.6 | 9.7 | 0.00 | 0.00 | 0.00 | 65 | 1003.9 |
| 20260506230154 | 23 | 270 | 1.6 | 6.4 | 0.00 | 0.00 | 0.00 | 65 | 1003.8 |
| 20260506225644 | 23 | 293 | 3.2 | 6.4 | 0.00 | 0.00 | 0.00 | 65 | 1004.4 |
| 20260506225138 | 23 | 248 | 0.0 | 6.4 | 0.00 | 0.00 | 0.00 | 65 | 1003.8 |
| 20260506224623 | 24 | 315 | 3.2 | 6.4 | 0.00 | 0.00 | 0.00 | 64 | 1004.5 |
| 20260506224112 | 24 | 338 | 1.6 | 6.4 | 0.00 | 0.00 | 0.00 | 64 | 1003.9 |
| 20260506223053 | 24 | 248 | 1.6 | 6.4 | 0.00 | 0.00 | 0.00 | 63 | 1003.9 |
| 20260506222545 | 25 | 248 | 3.2 | 6.4 | 0.00 | 0.00 | 0.00 | 63 | 1004.2 |
| 20260506222032 | 25 | 315 | 4.8 | 6.4 | 0.00 | 0.00 | 0.00 | 62 | 1004.1 |
| 20260506221522 | 25 | 248 | 3.2 | 9.7 | 0.00 | 0.00 | 0.00 | 61 | 1003.9 |
| 20260506221012 | 25 | 270 | 0.0 | 9.7 | 0.00 | 0.00 | 0.00 | 61 | 1004.2 |
| 20260506220502 | 25 | 270 | 3.2 | 6.4 | 0.00 | 0.00 | 0.00 | 62 | 1004.1 |
| 20260506215441 | 25 | 248 | 0.0 | 6.4 | 0.00 | 0.00 | 0.00 | 61 | 1003.9 |
| 20260506213911 | 26 | 293 | 0.0 | 12.9 | 0.00 | 0.00 | 0.00 | 61 | 1004.1 |
| 20260506213405 | 27 | 225 | 3.2 | 12.9 | 0.00 | 0.00 | 0.00 | 58 | 1003.9 |
| 20260506212850 | 27 | 203 | 3.2 | 6.4 | 0.00 | 0.00 | 0.00 | 57 | 1003.6 |
| 20260506212342 | 27 | 180 | 3.2 | 3.2 | 0.00 | 0.00 | 0.00 | 55 | 1003.8 |
| 20260506211831 | 28 | 180 | 0.0 | 3.2 | 0.00 | 0.00 | 0.00 | 54 | 1004.1 |
| 20260506211321 | 28 | 225 | 1.6 | 3.2 | 0.00 | 0.00 | 0.00 | 52 | 1003.9 |
| 20260506210813 | 29 | 225 | 0.0 | 3.2 | 0.00 | 0.00 | 0.00 | 49 | 1004.1 |
| 20260506210259 | 29 | 225 | 0.0 | 3.2 | 0.00 | 0.00 | 0.00 | 49 | 1003.6 |
| 20260506205749 | 29 | 225 | 0.0 | 3.2 | 0.00 | 0.00 | 0.00 | 49 | 1003.7 |
| 20260506204729 | 29 | 225 | 3.2 | 3.2 | 0.00 | 0.00 | 0.00 | 49 | 1003.6 |
| 20260506204221 | 29 | 248 | 3.2 | 3.2 | 0.00 | 0.00 | 0.00 | 49 | 1003.7 |
| 20260506202657 | 30 | 248 | 1.6 | 3.2 | 0.00 | 0.00 | 0.00 | 47 | 1003.7 |
| 20260506201257 | 30 | 248 | 1.6 | 3.2 | 0.00 | 0.00 | 0.00 | 46 | 1003.7 |
| 20260506200747 | 30 | 248 | 1.6 | 3.2 | 0.00 | 0.00 | 0.00 | 46 | 1003.9 |
| 20260506200237 | 30 | 225 | 1.6 | 6.4 | 0.00 | 0.00 | 0.00 | 47 | 1004.1 |
| 20260506195727 | 30 | 225 | 4.8 | 6.4 | 0.00 | 0.00 | 0.00 | 47 | 1003.7 |
| 20260506195220 | 30 | 180 | 1.6 | 6.4 | 0.00 | 0.00 | 0.00 | 48 | 1003.9 |
| 20260506194706 | 30 | 158 | 1.6 | 6.4 | 0.00 | 0.00 | 0.00 | 48 | 1003.4 |
| 20260506194157 | 30 | 135 | 0.0 | 6.4 | 0.00 | 0.00 | 0.00 | 46 | 1003.7 |
| 20260506193647 | 30 | 203 | 0.0 | 6.4 | 0.00 | 0.00 | 0.00 | 46 | 1003.7 |
| 20260506193137 | 29 | 180 | 3.2 | 6.4 | 0.00 | 0.00 | 0.00 | 49 | 1003.6 |
| 20260506192629 | 29 | 113 | 3.2 | 6.4 | 0.00 | 0.00 | 0.00 | 48 | 1003.8 |
| 20260506192116 | 29 | 113 | 3.2 | 6.4 | 0.00 | 0.00 | 0.00 | 49 | 1003.6 |
| 20260506191606 | 29 | 113 | 3.2 | 6.4 | 0.00 | 0.00 | 0.00 | 49 | 1003.6 |
| 20260506190545 | 29 | 90 | 3.2 | 9.7 | 0.00 | 0.00 | 0.00 | 49 | 1003.6 |
| 20260506190039 | 30 | 45 | 0.0 | 9.7 | 0.00 | 0.00 | 0.00 | 48 | 1003.7 |
| 20260506185525 | 29 | 68 | 1.6 | 9.7 | 0.00 | 0.00 | 0.00 | 48 | 1003.5 |
| 20260506185015 | 30 | 338 | 1.6 | 6.4 | 0.00 | 0.00 | 0.00 | 47 | 1003.5 |
| 20260506183954 | 28 | 315 | 4.8 | 6.4 | 0.00 | 0.00 | 0.00 | 49 | 1003.5 |
| 20260506183446 | 28 | 0.0 | 0.0 | 0.00 | 0.00 | 0.00 | 49 | ||
| 20260506182235 | 28 | 225 | 3.2 | 3.2 | 0.00 | 0.00 | 0.00 | 49 | 1004.1 |
| 20260506181212 | 28 | 225 | 1.6 | 6.4 | 0.00 | 0.00 | 0.00 | 48 | 1004.2 |
| 20260506180150 | 28 | 180 | 3.2 | 6.4 | 0.00 | 0.00 | 0.00 | 49 | 1004.6 |
| 20260506175644 | 27 | 135 | 1.6 | 6.4 | 0.00 | 0.00 | 0.00 | 51 | 1004.5 |
| 20260506175131 | 27 | 135 | 3.2 | 6.4 | 0.00 | 0.00 | 0.00 | 51 | 1004.8 |
| 20260506174620 | 27 | 158 | 1.6 | 6.4 | 0.00 | 0.00 | 0.00 | 51 | 1004.7 |
| 20260506174111 | 27 | 180 | 4.8 | 9.7 | 0.00 | 0.00 | 0.00 | 52 | 1005.0 |
| 20260506173608 | 26 | 158 | 4.8 | 9.7 | 0.00 | 0.00 | 0.00 | 53 | 1004.9 |
| 20260506173054 | 26 | 203 | 3.2 | 11.3 | 0.00 | 0.00 | 0.00 | 54 | 1005.4 |
| 20260506172544 | 26 | 203 | 4.8 | 12.9 | 0.00 | 0.00 | 0.00 | 54 | 1005.2 |
| 20260506172030 | 26 | 203 | 6.4 | 12.9 | 0.00 | 0.00 | 0.00 | 55 | 1005.6 |
| 20260506171519 | 26 | 203 | 4.8 | 6.4 | 0.00 | 0.00 | 0.00 | 55 | 1005.6 |
| 20260506171010 | 26 | 180 | 0.0 | 6.4 | 0.00 | 0.00 | 0.00 | 53 | 1005.8 |
| 20260506170502 | 26 | 158 | 3.2 | 6.4 | 0.00 | 0.00 | 0.00 | 56 | 1005.4 |
| 20260506165949 | 25 | 135 | 3.2 | 6.4 | 0.00 | 0.00 | 0.00 | 55 | 1006.0 |
| 20260506165439 | 25 | 158 | 4.8 | 6.4 | 0.00 | 0.00 | 0.00 | 55 | 1005.8 |
| 20260506164928 | 25 | 113 | 3.2 | 6.4 | 0.00 | 0.00 | 0.00 | 55 | 1006.3 |
| 20260506164418 | 25 | 113 | 3.2 | 6.4 | 0.00 | 0.00 | 0.00 | 57 | 1006.3 |
| 20260506163912 | 25 | 158 | 3.2 | 6.4 | 0.00 | 0.00 | 0.00 | 56 | 1006.6 |
| 20260506163400 | 25 | 180 | 1.6 | 6.4 | 0.00 | 0.00 | 0.00 | 56 | 1006.6 |
| 20260506162849 | 25 | 180 | 3.2 | 6.4 | 0.00 | 0.00 | 0.00 | 58 | 1006.4 |
| 20260506161829 | 25 | 135 | 3.2 | 9.7 | 0.00 | 0.00 | 0.00 | 58 | 1006.9 |
| 20260506161322 | 25 | 135 | 3.2 | 9.7 | 0.00 | 0.00 | 0.00 | 59 | 1007.1 |
| 20260506160808 | 24 | 203 | 3.2 | 6.4 | 0.00 | 0.00 | 0.00 | 60 | 1007.1 |
| 20260506160258 | 23 | 135 | 3.2 | 6.4 | 0.00 | 0.00 | 0.00 | 63 | 1007.4 |
| 20260506155238 | 23 | 158 | 3.2 | 9.7 | 0.00 | 0.00 | 0.00 | 62 | 1007.5 |
| 20260506154730 | 24 | 203 | 6.4 | 9.7 | 0.00 | 0.00 | 0.00 | 61 | 1007.9 |